Zurück zum Katalog

SL-16 DEB

AktivLEO
NORAD 18412·DEBRIS·🇷🇺 Russia

Gestartet May 13, 1987 von Baikonur Cosmodrome

Loading…

Nächste Überflüge (nächste 24 Stunden)

TLE

AktuellSource: Space-Track

Epoche: Sep 14, 2026, 08:49 UTC

1 18412U 87041E   26257.36792246  .00000043  00000-0  75428-4 0  9994
2 18412  71.0252 236.2198 0189281 105.6517 256.5560 13.76912458974926

Verfolge SL-16 DEB in Echtzeit mit AllMySat

Download on the App Store